Flag for U.S.A. Weather past 2 weeks in Paradise, Nevada, U.S.A.

54 °F

Scattered clouds.

Feels Like: 50 °F
Forecast: 40 / 57 °F
Wind: 14 mph from South

Location: McCarran International Airport

Current Time: Nov 25, 2015 at 8:20:06 AM

Latest Report: Nov 25, 2015 at 7:56 AM

Visibility: 10 mi

Pressure: 29.59 "Hg (27.40 "Hg at 643m altitude)

Humidity: 38%

Dew point: 29 °F

Location of ParadiseLocation

Historic Weather in Paradise — Graph


Paradise temperature yesterday

Maximum temperature yesterday: 75 °F (at 1:56 PM)
Minimum temperature yesterday: 47 °F (at 4:56 AM)
Average temperature yesterday: 60 °F

Past Weeks' High & Low Weather Summary

High75 °F (Nov 24, 1:56 PM)71% (Nov 16, 3:56 AM)30.32 "Hg (Nov 16, 3:56 AM)
Low41 °F (Nov 12, 3:56 AM)8% (Nov 21, 1:56 PM)29.54 "Hg (Nov 15, 9:56 PM)
Average55 °F28%29.99 "Hg
* Reported Nov 10 6:56 AM — Nov 25 6:56 AM, Paradise, Weather by CustomWeather, © 2015

Note: Actual official high and low records may vary slightly from our data, if they occured in-between our weather recording intervals... More about our weather records


Paradise weather history for previous 24 hours

Time TempWeatherWind HumidityBarometerVisibility
6:56 AM
Wed, Nov 25
53 °FScattered clouds.21 mph47%29.56 "Hg10 mi
5:56 AM55 °FPassing clouds.12 mph44%29.57 "Hg10 mi
4:56 AM55 °FPassing clouds.14 mph45%29.57 "Hg10 mi
3:56 AM55 °FPassing clouds.18 mph45%29.55 "Hg10 mi
2:56 AM56 °FPassing clouds.23 mph44%29.55 "Hg10 mi
1:56 AM57 °FPassing clouds.13 mph41%29.57 "Hg10 mi
12:56 AM58 °FPassing clouds.18 mph38%29.57 "Hg10 mi
11:56 PM
Tue, Nov 24
59 °FPassing clouds.24 mph33%29.57 "Hg10 mi
10:56 PM60 °FPassing clouds.18 mph33%29.60 "Hg10 mi
9:56 PM61 °FPassing clouds.16 mph31%29.61 "Hg10 mi
8:56 PM63 °FPassing clouds.7 mph21%29.62 "Hg10 mi
7:56 PM65 °FClear.13 mph16%29.62 "Hg10 mi
6:56 PM66 °FClear.10 mph15%29.61 "Hg10 mi
5:56 PM66 °FPassing clouds.7 mph16%29.63 "Hg10 mi
4:56 PM68 °FPassing clouds.9 mph15%29.64 "Hg10 mi
3:56 PM70 °FScattered clouds.15 mph14%29.66 "Hg10 mi
2:56 PM72 °FScattered clouds.15 mph12%29.64 "Hg10 mi
1:56 PM75 °FPassing clouds.16 mph10%29.64 "Hg10 mi
12:56 PM74 °FPassing clouds.14 mph11%29.68 "Hg10 mi
11:56 AM73 °FPassing clouds.14 mph12%29.72 "Hg10 mi
10:56 AM71 °FPassing clouds.9 mph14%29.76 "Hg10 mi
9:56 AM64 °FPassing clouds.8 mph20%29.81 "Hg10 mi
8:56 AM57 °FScattered clouds.No wind24%29.82 "Hg10 mi
Weather by CustomWeather, © 2015

See weather overviewHow to use our weather pages